Regional Weather Roundup
Issued by NWS Newport/Morehead, NC

Current Version | Previous Version | Text Only | Print | Product List | Glossary On
Versions: 1 2 3 4 5 6 7 8 9 10 11 12 13 14 15 16 17 18 19 20 21 22 23 24 25 26 27 28 29 30 31 32 33 34 35 36 37 38 39 40 41 42 43 44 45 46 47 48 49 50
998
ASUS42 KMHX 240913
RWRMHX
WEATHER ROUNDUP FOR EASTERN NORTH CAROLINA
NATIONAL WEATHER SERVICE NEWPORT/MOREHEAD CITY NC
400 AM EST TUE JAN 24 2017

NOTE: "FAIR" INDICATES FEW OR NO CLOUDS BELOW 12,000 FEET
WITH NO SIGNIFICANT WEATHER AND/OR OBSTRUCTIONS TO VISIBILITY

NCZ015>017-031-032-045>047-102-103-241000-
NORTH COAST

CITY           SKY/WX    TMP DP  RH WIND       PRES   REMARKS
EDENTON        CLOUDY    43  40  89 NW10G21   29.45R FOG
ELIZABETH CITY CLOUDY    41  40  96 W15       29.41R FOG
KITTY HAWK     NOT AVBL
MANTEO         CLOUDY    44  41  91 NW9G24    29.40R

$$

NCZ045>047-081-094-103-104-241000-
CENTRAL COAST

CITY           SKY/WX    TMP DP  RH WIND       PRES   REMARKS
FRISCO         LGT RAIN  47  44  90 NW16G29   29.40R FOG

$$

NCZ095-097-098-100-101-241000-
SOUTHERN COAST

CITY           SKY/WX    TMP DP  RH WIND       PRES   REMARKS
BEAUFORT       CLOUDY    47  42  83 NW23G31   29.45R
CEDAR ISLAND   NOT AVBL
JACKSONVILLE   CLOUDY    46  42  86 NW10      29.48R
PINEY ISLAND   NOT AVBL
WILMINGTON     CLOUDY    48  45  89 NW12      29.50R


$$

NCZ011>013-027>030-043-044-078>080-089-090>093-098-241000-
COASTAL PLAIN

CITY           SKY/WX    TMP DP  RH WIND       PRES   REMARKS
AHOSKIE        DRIZZLE   39  38  96 W5        29.48R
CLINTON        CLOUDY    45  40  85 NW8       29.53R
ELIZABETHTOWN  CLEAR     46  40  78 NW9       29.54R
GOLDSBORO      CLOUDY    44  41  90 NW10      29.49R
GREENVILLE     CLOUDY    41  41 100 NW7       29.53R
HAVELOCK       CLOUDY    45  39  79 NW18G24   29.47R
KENANSVILLE    CLOUDY    45  39  81 NW12G20   29.51R
KINSTON        CLOUDY    43  39  85 NW10      29.49S
NEW BERN       CLOUDY    44  39  82 NW13G20   29.47R
RICHLANDS      CLOUDY    45  41  86 NW7       29.50R
ROCKY MOUNT    CLOUDY    42  38  85 NW12G20   29.50S
WASHINGTON     CLOUDY    42  37  84 NW13G18     N/A
WHITEVILLE     CLEAR     47  42  83 W6        29.54R

$$

AMZ130-135-150-152-154-156-158-170-250-252-270-ANZ085-086-088-633-658-670-241000-
MARINE OBSERVATIONS

STATION/POSITION TIME  TEMP    WIND        PRES    WAVE   SWELL
                       AIR SEA DIR/SP/G            HT/PER HT/PER
                 (UTC) (F)     (DEG/KT/KT) (MB)    (FT/S) (FT/S)
CHESAPEAKE LIGHT NOT AVBL
64 E VA BEACH    0850   46 51  330/ 25/ 33  990.6   12/13  10/13
DUCK             0848   44 46  310/ 19/ 26  994.2
2 E DUCK         0830      47                N/A     8/13   5/13
OREGON INLET     0842   44 50  290/ 13/ 22  994.7
13E OREGON INLT  NOT AVBL
HATTERAS CG      0848          290/ 22/ 26  995.1
DIAMOND BUOY     0850   51 75  300/ 23/ 29  994.5   10/10  10/10
CAPE LOOKOUT     0800   49     300/ 21/ 26  996.0
BEAUFORT LAB     0848   47 53  330/ 12/ 18  996.1
30 SE NEW RVR IN 0808   51 67  320/ 21/ 31  997.0
30 SE NEW RVR IN 0843      67                N/A     7/ 5   2/11
27 SE WRIGHTSVLE 0808   54 68  290/ 19/ 29  995.6
5 SE WRIGHTSVLE  0808   50 56  310/ 19/ 31  998.0
225 S CAPE HAT   0850   67 71  300/ 23/ 29  996.0   15/11  11/11
41 SE CHARLESTON 0750   61 68  300/ 21/ 27  999.7    7/ 8   5/ 8

$$




USA.gov is the U.S. government's official web portal to all federal, state and local government web resources and services.